Location: Ajisawe
(8.4333°N, 4.3833°E)
Time: 14:09:08
(UTC+00:00)

Courier 1B Rocket - Pass Details

Date: 30 April 2021
Orbit: 920 x 1202 km, 28.2° (Epoch: 07 May)

Event Time Altitude Azimuth Distance (km) Brightness Sun altitude
Rises 18:10:27 0° 316° (NW) 3,552 9.1 -5.2°
Reaches altitude 10° 18:14:27 10° 340° (NNW) 2,635 7.8 -6.1°
Maximum altitude 18:17:42 14° 12° (NNE) 2,366 7.1 -6.9°
Drops below altitude 10° 18:21:02 10° 43° (NE) 2,705 7.1 -7.7°
Enters shadow 18:25:03 - 66° (ENE) 3,661 7.5 -8.6°
Sets 18:25:14 0° 67° (ENE) 3,714 - -8.7°
